Weather History for Saginaw, MI

Change the Weather History Date:

Saturday, June 7, 2014

  Actual Average Record
Temperature  
Mean Temperature 71 °F 65 °F  
Max Temperature 85 °F 75 °F 93 °F (2011)
Min Temperature 56 °F 54 °F 46 °F (1998)
Degree Days  
Heating Degree Days 0    
Month to date heating degree days 1  
Since 1 June heating degree days 1  
Since 1 July heating degree days 7583  
Cooling Degree Days 6    
Month to date cooling degree days 31  
Year to date cooling degree days 75  
Since 1 June cooling degree days 31  
Growing Degree Days 20 (Base 50)    
Moisture  
Dew Point 47 °F    
Average Humidity 51    
Maximum Humidity 77    
Minimum Humidity 25    
Precipitation  
Precipitation 0.00 in 0.11 in 0.11 in (2006)
Month to date precipitation 0.24 0.68  
Year to date precipitation 11.83 12.33  
Snow  
Snow 0.00 in - - ()
Month to date snowfall 0.0  
Since 1 June snowfall 0.0  
Since 1 July snowfall 60.3  
Snow Depth 0.00 in    
Sea Level Pressure  
Sea Level Pressure 29.95 in    
Wind  
Wind Speed 5 mph (SSE)    
Max Wind Speed 15 mph    
Max Gust Speed 18 mph    
Visibility 7 miles    
Events      
T = Trace of Precipitation, MM = Missing Value Source: NWS Daily Summary

Daily Weather History Graph

Daily Weather History Graph

Search for Another Location

Airport:

Trip Planner

Search our weather history database for the weather conditions in past years. The results will help you decide how hot, cold, wet, or windy it might be!

Date:

Astronomy

Jun. 07, 2014 Rise Set
Actual Time 5:55 AM EDT 9:15 PM EDT
Civil Twilight 5:20 AM EDT 9:50 PM EDT
Nautical Twilight 4:34 AM EDT 10:36 PM EDT
Astronomical Twilight 3:37 AM EDT 11:33 PM EDT
Moon 3:22 PM EDT (6/7) 2:27 AM EDT (6/7)
Length of Visible Light 16h 30m
Length of Day
15h 19m
Waxing Gibbous, 67% of the Moon is Illuminated
Jun 7
Waxing Gibbous
Jun 13
Full
Jun 19
Last Quarter
Jun 27
New
Jul 5
First Quarter

Hourly Weather History & Observations

Time (EDT) Temp. Dew Point Humidity Pressure Visibility Wind Dir Wind Speed Gust Speed Precip Events Conditions
12:53 AM 62.1 °F 48.0 °F 60% 30.00 in 10.0 mi SE 5.8 mph - N/A   Clear
1:53 AM 64.0 °F 46.0 °F 52% 30.00 in 10.0 mi South 3.5 mph - N/A   Clear
2:53 AM 61.0 °F 46.0 °F 58% 30.02 in 10.0 mi SW 4.6 mph - N/A   Clear
3:53 AM 63.0 °F 46.9 °F 56% 30.01 in 10.0 mi Calm Calm - N/A   Clear
4:53 AM 57.2 °F 48.2 °F 72% 30.01 in 10.0 mi SW 3.5 mph - N/A   Clear
5:53 AM 57.0 °F 48.9 °F 74% 30.01 in 10.0 mi SSW 4.6 mph - N/A   Clear
6:53 AM 57.0 °F 50.0 °F 77% 30.05 in 10.0 mi WSW 5.8 mph - N/A   Clear
7:53 AM 62.6 °F 51.8 °F 68% 30.06 in 10.0 mi West 4.6 mph - N/A   Clear
8:53 AM 68.0 °F 52.0 °F 56% 30.06 in 10.0 mi Calm Calm - N/A   Clear
9:53 AM 73.0 °F 53.1 °F 49% 30.04 in 10.0 mi Calm Calm - N/A   Clear
10:53 AM 78.8 °F 51.8 °F 39% 30.01 in 10.0 mi ENE 4.6 mph - N/A   Clear
11:53 AM 81.0 °F 50.0 °F 34% 29.99 in 10.0 mi Variable 5.8 mph - N/A   Clear
12:53 PM 82.0 °F 50.0 °F 33% 30.00 in 10.0 mi SE 6.9 mph - N/A   Clear
1:53 PM 82.9 °F 48.9 °F 31% 29.99 in 10.0 mi North - - N/A   Partly Cloudy
2:53 PM 84.0 °F 48.0 °F 28% 29.95 in 10.0 mi SSW 9.2 mph - N/A   Clear
3:53 PM 84.0 °F 45.0 °F 25% 29.94 in 10.0 mi Calm Calm - N/A   Clear
4:53 PM 82.9 °F 46.9 °F 28% 29.92 in 10.0 mi SE 11.5 mph - N/A   Partly Cloudy
5:53 PM 82.9 °F 44.1 °F 25% 29.92 in 10.0 mi SE 9.2 mph - N/A   Clear
5:58 PM 82.9 °F 44.1 °F 25% 29.92 in 0.8 mi Variable 4.6 mph - N/A   Haze
6:08 PM 84.0 °F 45.0 °F 25% 29.92 in 0.2 mi SE 9.2 mph - N/A   Haze
6:13 PM 82.9 °F 45.0 °F 26% 29.92 in 1.2 mi SE 6.9 mph - N/A   Haze
6:20 PM 84.0 °F 44.1 °F 25% 29.92 in 10.0 mi South 8.1 mph - N/A   Clear
6:23 PM 84.0 °F 44.1 °F 25% 29.92 in 1.0 mi SE 8.1 mph - N/A   Haze
6:30 PM 82.9 °F 45.0 °F 26% 29.92 in 0.8 mi Variable 6.9 mph - N/A   Haze
6:33 PM 82.9 °F 45.0 °F 26% 29.92 in 2.5 mi SSE 8.1 mph - N/A   Haze
6:40 PM 82.9 °F 45.0 °F 26% 29.92 in 10.0 mi South 9.2 mph - N/A   Clear
6:53 PM 82.0 °F 46.0 °F 28% 29.91 in 10.0 mi SSE 3.5 mph - N/A   Clear
7:03 PM 81.0 °F 46.0 °F 29% 29.91 in 0.8 mi South 5.8 mph - N/A   Haze
7:14 PM 82.0 °F 45.0 °F 27% 29.91 in 2.0 mi SSE 8.1 mph - N/A   Haze
7:21 PM 81.0 °F 45.0 °F 28% 29.91 in 10.0 mi SSE 6.9 mph - N/A   Clear
7:53 PM 80.1 °F 45.0 °F 29% 29.90 in 10.0 mi SSE 5.8 mph - N/A   Clear
8:44 PM 78.1 °F 48.0 °F 35% 29.90 in 0.2 mi South 6.9 mph - N/A   Haze
8:53 PM 78.1 °F 48.0 °F 35% 29.89 in 0.2 mi South 6.9 mph - N/A   Haze
8:55 PM 78.1 °F 48.0 °F 35% 29.90 in 1.5 mi South 6.9 mph - N/A   Haze
9:02 PM 77.0 °F 48.0 °F 36% 29.89 in 10.0 mi South 5.8 mph - N/A   Clear
9:53 PM 75.0 °F 46.9 °F 37% 29.89 in 4.0 mi SSE 5.8 mph - N/A   Haze
10:53 PM 73.0 °F 46.9 °F 39% 29.90 in 10.0 mi SSE 4.6 mph - N/A   Clear
11:53 PM 70.0 °F 48.0 °F 46% 29.88 in 10.0 mi SE 8.1 mph - N/A   Clear